Location: Kumla
(59.1265°N, 15.1401°E)
Time: 23:34:35
(UTC+01:00)

Vanguard 1 - Pass Details

Date: 12 December 2023
Orbit: 653 x 3825 km, 34.3° (Epoch: 04 March)

Event Time Altitude Azimuth Distance (km) Brightness Sun altitude
Rises 22:35:17 0° 267° (W) 6,913 14.6 -51.4°
Reaches altitude 10° 22:43:00 10° 248° (WSW) 6,418 14.2 -51.9°
Enters shadow 22:51:50 15° 223° (SW) 6,367 13.9 -52.4°
